This is the latest recevied weather packets stored in our database for station/object IW4EGP-3. If no packets are shown the sender has not sent any weather packets the latest 10 day(s).
| Time | Temp. | Humidity | Pressure | Rain* | Wind** | Luminosity | Snow |
|---|---|---|---|---|---|---|---|
| 1787837408 | 30° C | 66% | 1018 hPa | 0 mm | - | - | - |
| 1787836512 | 30.56° C | 62% | 1018.1 hPa | 0 mm | - | - | - |
| 1787835607 | 30.56° C | 58% | 1018.1 hPa | 0 mm | - | - | - |
| 1787834707 | 31.11° C | 57% | 1018.1 hPa | 0 mm | - | - | - |
| 1787833850 | 30.56° C | 59% | 1018.3 hPa | 0 mm | - | - | - |
| 1787833806 | 30.56° C | 59% | 1018.3 hPa | 0 mm | - | - | - |
| 1787832908 | 31.11° C | 60% | 1018.2 hPa | 0 mm | - | - | - |
| 1787832006 | 30.56° C | 61% | 1018.4 hPa | 0 mm | - | - | - |
| 1787831108 | 31.11° C | 58% | 1018.4 hPa | 0 mm | - | - | - |
| 1787830296 | 30.56° C | 58% | 1018.3 hPa | 0 mm | - | - | - |
| 1787830245 | 30.56° C | 58% | 1018.3 hPa | 0 mm | - | - | - |
| 1787830209 | 30.56° C | 58% | 1018.3 hPa | 0 mm | - | - | - |
| 1787829307 | 30.56° C | 61% | 1018.5 hPa | 0 mm | - | - | - |
| 1787828407 | 30.56° C | 64% | 1018.6 hPa | 0 mm | - | - | - |
| 1787827509 | 30.56° C | 60% | 1018.2 hPa | 0 mm | - | - | - |
| 1787826639 | 31.11° C | 60% | 1018.5 hPa | 0 mm | - | - | - |
| 1787826607 | 31.11° C | 60% | 1018.5 hPa | 0 mm | - | - | - |
| 1787825816 | 30.56° C | 63% | 1018.4 hPa | 0 mm | - | - | - |
| 1787825707 | 30.56° C | 63% | 1018.4 hPa | 0 mm | - | - | - |
| 1787824810 | 31.11° C | 61% | 1018.5 hPa | 0 mm | - | - | - |
| 1787823951 | 30.56° C | 64% | 1018.3 hPa | 0 mm | - | - | - |
| 1787823910 | 30.56° C | 64% | 1018.3 hPa | 0 mm | - | - | - |
| 1787823078 | 30.56° C | 62% | 1018.5 hPa | 0 mm | - | - | - |
| 1787823006 | 30.56° C | 62% | 1018.5 hPa | 0 mm | - | - | - |
| 1787822174 | 31.11° C | 61% | 1018.3 hPa | 0 mm | - | - | - |
* Rain latest hour (hover to see other rain measurements)
** Current wind speed in m/s (hover to see current wind gust speed)